sat.trackr.live / text

‹ back to catalog

ANDESITE

NORAD 45726 · 2020-037D

PAYLOAD ACTIVE UNKNOWN

§ Identity

Operator
Country
US
Launch date
2020-06-13
Launch site
RLLB
Launch vehicle
Mass (kg)
RCS (m²)

External: N2YO · Heavens-Above · Gunter

§ Orbital elements

Epoch: 2026-05-24T10:38:22.897248Z

Period
95.65 min
Inclination
97.7858°
Eccentricity
0.0007570
Mean motion
15.05546905 rev/d
Perigee alt
544.6 km
Apogee alt
555.1 km
Semi-major
6,928.0 km
B*
1.1036e-4
RAAN
337.1717°
Arg perigee
246.8931°
Mean anomaly
113.1497°
Rev number
32,209

§ Raw data

ANDESITE1 45726U 20037D   26144.44332057  .00001525  00000+0  11036-3 0  99972 45726  97.7858 337.1717 0007570 246.8931 113.1497 15.05546905322093

JSON: /api/v1/satellites/45726 · /tle

For live sub-satellite position, see the globe view (requires WebGL).

§ Visibility from observer

Set your observer location to see the next 7 days of passes ≥ 10°. The values pass through the URL so the page stays shareable.

No JS? Fill the form by hand. The geolocation button needs JavaScript.